• Join FlightAware (Why Join?)
  • Login
  • US Flag 
12:58PM EST


 

Airport Tracker/Info


-or-


 

Live Flight TrackerFlight Track Log ✈ NJE3C ✈ 19-Apr-2013 ✈ KHOU - EGLF / FAB

Flight Track Log - Related Links

Times and Time Zones

All times are in EDT time to prevent confusion due to time zone crossing. See the NJE3C flight status page for this flight to view local times or setup timezone preferences in your user account.

Time Position Orientation Groundspeed Altitude Reporting Facility
EDT Latitude Longitude Course Direction KTS MPH feet Rate Location/Type
07:22PM 29.6564 -95.2672 North 160 184 800  Level Houston Center
07:23PM 29.6958 -95.2625 North 178 205 3,000 2,580 Climbing Houston Center
07:23PM 29.7058 -95.2639 353° North 176 203 3,600 2,640 Climbing Houston Center
07:24PM 29.7597 -95.2939 334° Northwest 211 243 6,500 2,700 Climbing Houston Center
07:25PM 29.8314 -95.2914 North 258 297 9,300 2,220 Climbing Houston Center
07:26PM 29.9125 -95.2789 North 288 331 11,200 2,160 Climbing Houston Center
07:27PM 30.0100 -95.2661 North 346 398 13,800 2,460 Climbing Houston Center
07:28PM 30.1122 -95.2514 North 366 421 16,300 2,220 Climbing Houston Center
07:29PM 30.2431 -95.2342 North 395 455 18,500 2,160 Climbing Houston Center
07:30PM 30.3561 -95.1961 16° North 424 488 20,800 2,040 Climbing Houston Center
07:31PM 30.4825 -95.1444 19° North 446 513 22,800 1,920 Climbing Houston Center
07:32PM 30.5994 -95.0692 29° Northeast 476 548 24,800 1,680 Climbing Houston Center
07:33PM 30.7211 -94.9931 28° Northeast 492 566 26,300 1,500 Climbing Houston Center
07:34PM 30.8489 -94.9131 28° Northeast 518 596 28,000 1,680 Climbing Houston Center
07:35PM 30.9556 -94.8481 28° Northeast 500 575 29,300 1,500 Climbing Fort Worth Center
07:36PM 31.0875 -94.7644 28° Northeast 515 593 30,700 1,200 Climbing Fort Worth Center
07:37PM 31.2089 -94.6883 28° Northeast 526 605 31,700 1,500 Climbing Fort Worth Center
07:38PM 31.3447 -94.5942 31° Northeast 547 629 33,700 1,860 Climbing Fort Worth Center
07:39PM 31.4783 -94.5000 31° Northeast 553 636 35,500 1,140 Climbing Fort Worth Center
07:40PM 31.6097 -94.4081 31° Northeast 553 636 36,000 240 Climbing Fort Worth Center
07:41PM 31.7411 -94.3158 31° Northeast 548 631 36,000  Level Fort Worth Center
07:42PM 31.8725 -94.2233 31° Northeast 548 631 36,000  Level Fort Worth Center
07:43PM 32.0036 -94.1331 30° Northeast 548 631 36,000 300 Level Fort Worth Center
07:44PM 32.1308 -94.0428 31° Northeast 548 631 36,600 840 Climbing Fort Worth Center
07:45PM 32.2719 -93.9392 32° Northeast 548 631 37,700 960 Climbing Fort Worth Center
07:46PM 32.4050 -93.8456 31° Northeast 548 631 38,600 900 Climbing Fort Worth Center
07:47PM 32.5358 -93.7492 32° Northeast 548 631 39,500 840 Climbing Fort Worth Center
07:48PM 32.6667 -93.6575 31° Northeast 548 631 40,300 720 Climbing Fort Worth Center
07:49PM 32.7956 -93.5656 31° Northeast 548 631 41,000 300 Climbing Fort Worth Center
07:50PM 32.9281 -93.4708 31° Northeast 548 631 41,000  Level Fort Worth Center
07:51PM 33.0608 -93.3733 32° Northeast 548 631 41,000  Level Fort Worth Center
07:52PM 33.1933 -93.2806 30° Northeast 548 631 41,000  Level Fort Worth Center
07:53PM 33.3281 -93.1847 31° Northeast 548 631 41,000  Level Fort Worth Center
07:54PM 33.4733 -93.0767 32° Northeast 574 661 41,000  Level Memphis Center
07:55PM 33.6047 -92.9811 31° Northeast 561 646 41,000  Level Memphis Center
07:56PM 33.7361 -92.8875 31° Northeast 556 640 41,000  Level Memphis Center
07:57PM 33.8675 -92.7889 32° Northeast 551 634 41,000  Level Memphis Center
07:58PM 34.0006 -92.6922 31° Northeast 546 628 41,000  Level Memphis Center
07:59PM 34.1425 -92.5808 33° Northeast 546 628 41,000  Level Memphis Center
08:00PM 34.2756 -92.4861 30° Northeast 546 628 41,000  Level Memphis Center
08:01PM 34.4089 -92.3836 32° Northeast 553 636 41,000  Level Memphis Center
08:02PM 34.5419 -92.2808 32° Northeast 553 636 41,000  Level Memphis Center
08:03PM 34.6603 -92.1903 32° Northeast 565 650 41,000  Level Memphis Center
08:04PM 34.7767 -92.0561 43° Northeast 559 643 41,000  Level Memphis Center
08:05PM 34.8850 -91.9139 47° Northeast 559 643 41,000  Level Memphis Center
08:06PM 34.9972 -91.7717 46° Northeast 569 655 41,000  Level Memphis Center
08:07PM 35.1072 -91.6314 46° Northeast 574 661 41,000  Level Memphis Center
08:08PM 35.2172 -91.4881 47° Northeast 574 661 41,000  Level Memphis Center
08:09PM 35.3267 -91.3494 46° Northeast 569 655 41,000  Level Memphis Center
08:10PM 35.4469 -91.1906 47° Northeast 569 655 41,000  Level Memphis Center
08:11PM 35.5561 -91.0486 47° Northeast 569 655 41,000  Level Memphis Center
08:12PM 35.6506 -90.9217 48° Northeast 569 655 41,000  Level Memphis Center
08:13PM 35.7681 -90.7639 47° Northeast 564 649 41,000  Level Memphis Center
08:14PM 35.8622 -90.6361 48° Northeast 559 643 41,000  Level Memphis Center
08:15PM 35.9708 -90.4928 47° Northeast 564 649 41,000  Level Memphis Center
08:16PM 36.0794 -90.3467 47° Northeast 569 655 41,000  Level Memphis Center
08:17PM 36.1897 -90.2000 47° Northeast 569 655 41,000  Level Memphis Center
08:18PM 36.2958 -90.0558 48° Northeast 569 655 41,000  Level Memphis Center
08:19PM 36.4058 -89.9083 47° Northeast 569 655 41,000  Level Memphis Center
08:20PM 36.5158 -89.7606 47° Northeast 569 655 41,000  Level Memphis Center
08:21PM 36.6253 -89.6122 47° Northeast 569 655 41,000  Level Memphis Center
08:22PM 36.7369 -89.4611 47° Northeast 569 655 41,000  Level Memphis Center
08:23PM 36.8419 -89.3122 49° Northeast 569 655 41,000  Level Memphis Center
08:24PM 36.9531 -89.1603 48° Northeast 569 655 41,000  Level Memphis Center
08:25PM 37.0703 -88.9972 48° Northeast 569 655 41,000  Level Memphis Center
08:26PM 37.1769 -88.8469 48° Northeast 569 655 41,000  Level Memphis Center
08:27PM 37.2875 -88.6936 48° Northeast 569 655 41,000  Level Memphis Center
08:28PM 37.3936 -88.5428 48° Northeast 569 655 41,000  Level Memphis Center
08:30PM 37.5100 -88.3653 50° Northeast 583 671 41,000  Level Indianapolis Center
08:31PM 37.6192 -88.2086 49° Northeast 585 673 41,000  Level Indianapolis Center
08:32PM 37.7281 -88.0528 49° Northeast 585 673 41,000  Level Indianapolis Center
08:33PM 37.8342 -87.8986 49° Northeast 588 677 41,000  Level Indianapolis Center
08:34PM 37.9628 -87.7111 49° Northeast 586 674 41,000  Level Indianapolis Center
08:35PM 38.0653 -87.5481 51° Northeast 587 676 41,000  Level Indianapolis Center
08:36PM 38.1683 -87.3864 51° Northeast 586 674 41,000  Level Indianapolis Center
08:37PM 38.2731 -87.2214 51° Northeast 587 676 41,000  Level Indianapolis Center
08:38PM 38.3769 -87.0542 52° Northeast 592 681 41,000  Level Indianapolis Center
08:39PM 38.4861 -86.8800 51° Northeast 588 677 41,000  Level Indianapolis Center
08:40PM 38.5886 -86.7161 51° Northeast 587 676 41,000  Level Indianapolis Center
08:41PM 38.6897 -86.5528 52° Northeast 585 673 41,000  Level Indianapolis Center
08:42PM 38.7914 -86.3875 52° Northeast 587 676 41,000  Level Indianapolis Center
08:43PM 38.8933 -86.2219 52° Northeast 589 678 41,000  Level Indianapolis Center
08:44PM 38.9944 -86.0547 52° Northeast 589 678 41,000  Level Indianapolis Center
08:45PM 39.0964 -85.8872 52° Northeast 591 680 41,000  Level Indianapolis Center
08:46PM 39.1981 -85.7197 52° Northeast 591 680 41,000  Level Indianapolis Center
08:47PM 39.3069 -85.5378 52° Northeast 591 680 41,000  Level Indianapolis Center
08:48PM 39.4128 -85.3722 50° Northeast 591 680 41,000  Level Indianapolis Center
08:49PM 39.5247 -85.2106 48° Northeast 595 685 41,000  Level Indianapolis Center
08:50PM 39.6314 -85.0461 50° Northeast 593 682 41,000  Level Indianapolis Center
08:51PM 39.7414 -84.8819 49° Northeast 594 684 41,000  Level Indianapolis Center
08:52PM 39.8489 -84.7181 49° Northeast 590 679 41,000  Level Indianapolis Center
08:53PM 39.9583 -84.5519 49° Northeast 594 684 41,000  Level Indianapolis Center
08:54PM 40.0669 -84.3856 50° Northeast 595 685 41,000  Level Indianapolis Center
08:55PM 40.1742 -84.2181 50° Northeast 594 684 41,000  Level Indianapolis Center
08:56PM 40.2831 -84.0486 50° Northeast 596 686 41,000  Level Indianapolis Center
08:57PM 40.3869 -83.8736 52° Northeast 599 689 41,000  Level Indianapolis Center
08:58PM 40.4889 -83.6964 53° Northeast 599 689 41,000  Level Indianapolis Center
08:59PM 40.5914 -83.5203 52° Northeast 598 688 41,000  Level Indianapolis Center
09:00PM 40.6792 -83.3703 52° Northeast 603 694 41,000  Level Cleveland Center
09:01PM 40.7794 -83.1936 53° Northeast 608 700 41,000  Level Cleveland Center
09:02PM 40.8706 -83.0353 53° Northeast 608 700 41,000  Level Cleveland Center
09:03PM 40.9700 -82.8575 53° Northeast 608 700 41,000  Level Cleveland Center
09:04PM 41.0694 -82.6792 53° Northeast 608 700 41,000  Level Cleveland Center
09:05PM 41.1869 -82.5144 47° Northeast 608 700 41,000  Level Cleveland Center
09:06PM 41.3325 -82.4083 29° Northeast 600 690 41,000  Level Cleveland Center
09:07PM 41.4947 -82.2908 28° Northeast 600 690 41,000  Level Cleveland Center
09:08PM 41.6422 -82.1836 29° Northeast 595 685 41,000  Level Cleveland Center
09:09PM 41.7897 -82.0786 28° Northeast 590 679 41,000  Level Cleveland Center
09:10PM 41.9369 -81.9703 29° Northeast 596 686 41,000  Level Cleveland Center
09:11PM 42.0842 -81.8617 29° Northeast 591 680 41,000  Level Cleveland Center
09:12PM 42.2186 -81.7636 28° Northeast 591 680 41,000  Level Cleveland Center
09:13PM 42.3678 -81.6539 29° Northeast 597 687 41,000  Level Cleveland Center
09:14PM 42.5167 -81.5467 28° Northeast 597 687 41,000  Level Cleveland Center
09:15PM 42.6614 -81.4386 29° Northeast 597 687 41,000  Level Cleveland Center
09:17PM 42.9833 -81.1667 32° Northeast 610 702 41,000  Level Toronto Center
09:18PM 43.1333 -81.0000 39° Northeast 610 702 41,000  Level Toronto Center
09:19PM 43.2500 -80.8500 43° Northeast 610 702 41,000  Level Toronto Center
09:20PM 43.3833 -80.6833 42° Northeast 610 702 41,000  Level Toronto Center
09:21PM 43.5000 -80.5000 49° Northeast 610 702 41,000  Level Toronto Center
09:22PM 43.6167 -80.3500 43° Northeast 620 713 41,000  Level Toronto Center
09:23PM 43.7333 -80.1833 46° Northeast 610 702 41,000  Level Toronto Center
09:24PM 43.8667 -80.0333 39° Northeast 610 702 41,000  Level Toronto Center
09:25PM 43.9833 -79.8667 46° Northeast 610 702 41,000  Level Toronto Center
09:26PM 44.1000 -79.7000 46° Northeast 620 713 41,000  Level Toronto Center
09:27PM 44.2333 -79.5167 45° Northeast 620 713 41,000  Level Toronto Center
09:28PM 44.3500 -79.3500 46° Northeast 610 702 41,000  Level Toronto Center
09:29PM 44.4833 -79.1833 42° Northeast 610 702 41,000  Level Toronto Center
09:30PM 44.6000 -79.0167 45° Northeast 610 702 41,000  Level Toronto Center
09:31PM 44.7167 -78.8500 45° Northeast 610 702 41,000  Level Montreal Center
09:32PM 44.8333 -78.6833 45° Northeast 620 713 41,000  Level Montreal Center
09:33PM 44.9667 -78.5000 44° Northeast 610 702 41,000  Level Montreal Center
09:34PM 45.0833 -78.3333 45° Northeast 610 702 41,000  Level Montreal Center
09:35PM 45.2000 -78.1833 42° Northeast 610 702 41,000  Level Montreal Center
09:36PM 45.3167 -78.0000 48° Northeast 610 702 41,000  Level Montreal Center
09:37PM 45.4500 -77.8000 46° Northeast 610 702 41,000  Level Montreal Center
09:38PM 45.5667 -77.6500 42° Northeast 610 702 41,000  Level Montreal Center
09:39PM 45.6833 -77.4500 50° Northeast 610 702 41,000  Level Montreal Center
09:40PM 45.7833 -77.2833 49° Northeast 610 702 41,000  Level Montreal Center
09:41PM 45.9167 -77.1000 44° Northeast 610 702 41,000  Level Montreal Center
09:42PM 46.0167 -76.9333 49° Northeast 620 713 41,000  Level Montreal Center
09:43PM 46.1500 -76.7500 44° Northeast 610 702 41,000  Level Montreal Center
09:44PM 46.2667 -76.5667 47° Northeast 610 702 41,000  Level Montreal Center
09:45PM 46.3833 -76.3833 47° Northeast 610 702 41,000  Level Montreal Center
09:46PM 46.5000 -76.2167 44° Northeast 610 702 41,000  Level Montreal Center
09:47PM 46.6167 -76.0167 50° Northeast 610 702 41,000  Level Montreal Center
09:48PM 46.7333 -75.8500 44° Northeast 610 702 41,000  Level Montreal Center
09:49PM 46.8500 -75.6667 47° Northeast 610 702 41,000  Level Montreal Center
09:50PM 46.9667 -75.4833 47° Northeast 610 702 41,000  Level Montreal Center
09:51PM 47.0667 -75.2833 54° Northeast 610 702 41,000  Level Montreal Center
09:52PM 47.1833 -75.1000 47° Northeast 610 702 41,000  Level Montreal Center
09:53PM 47.3000 -74.9000 49° Northeast 610 702 41,000  Level Montreal Center
09:54PM 47.4167 -74.7333 44° Northeast 600 690 41,000  Level Montreal Center
09:55PM 47.5333 -74.5500 47° Northeast 600 690 41,000  Level Montreal Center
09:56PM 47.6333 -74.3667 51° Northeast 600 690 41,000  Level Montreal Center
09:57PM 47.7333 -74.1667 53° Northeast 590 679 41,000  Level Montreal Center
09:58PM 47.8500 -73.9833 46° Northeast 590 679 41,000  Level Montreal Center
09:59PM 47.9667 -73.7833 49° Northeast 600 690 41,000  Level Montreal Center
10:00PM 48.0667 -73.6000 51° Northeast 600 690 41,000  Level Montreal Center
10:01PM 48.1833 -73.4167 46° Northeast 590 679 41,000  Level Montreal Center
10:02PM 48.3000 -73.2333 46° Northeast 590 679 41,000  Level Montreal Center
10:03PM 48.3833 -73.0500 56° Northeast 580 667 41,000  Level Montreal Center
10:04PM 48.5000 -72.8667 46° Northeast 580 667 41,000  Level Montreal Center
10:05PM 48.6000 -72.6833 50° Northeast 580 667 41,000  Level Montreal Center
10:06PM 48.7167 -72.5000 46° Northeast 580 667 41,000  Level Montreal Center
10:07PM 48.8000 -72.3167 55° Northeast 580 667 41,000  Level Montreal Center
10:08PM 48.9167 -72.1000 51° Northeast 580 667 41,000  Level Montreal Center
10:09PM 49.0333 -71.9167 46° Northeast 580 667 41,000  Level Montreal Center
10:10PM 49.1167 -71.7333 55° Northeast 580 667 41,000  Level Montreal Center
10:11PM 49.2333 -71.5333 48° Northeast 580 667 41,000  Level Montreal Center
10:12PM 49.3333 -71.3500 50° Northeast 590 679 41,000  Level Montreal Center
10:13PM 49.4333 -71.1500 52° Northeast 590 679 41,000  Level Montreal Center
10:14PM 49.5500 -70.9333 50° Northeast 590 679 41,000  Level Montreal Center
10:15PM 49.6500 -70.7500 50° Northeast 600 690 41,000  Level Montreal Center
10:16PM 49.7500 -70.5500 52° Northeast 600 690 41,000  Level Montreal Center
10:17PM 49.8500 -70.3500 52° Northeast 590 679 41,000  Level Montreal Center
10:18PM 49.9667 -70.1500 48° Northeast 590 679 41,000  Level Montreal Center
10:19PM 50.0667 -69.9333 54° Northeast 590 679 41,000  Level Montreal Center
10:20PM 50.1500 -69.7333 57° Northeast 590 679 41,000  Level Montreal Center
10:21PM 50.2667 -69.5333 48° Northeast 590 679 41,000  Level Montreal Center
10:22PM 50.3667 -69.3333 52° Northeast 590 679 41,000  Level Montreal Center
10:23PM 50.4667 -69.1167 54° Northeast 590 679 41,000  Level Montreal Center
10:24PM 50.5667 -68.9167 52° Northeast 600 690 41,000  Level Montreal Center
10:25PM 50.6667 -68.6833 56° Northeast 590 679 41,000  Level Montreal Center
10:26PM 50.7667 -68.5000 49° Northeast 590 679 41,000  Level Montreal Center
10:27PM 50.8667 -68.3000 52° Northeast 590 679 41,000  Level Montreal Center
10:28PM 50.9667 -68.0667 56° Northeast 600 690 41,000  Level Montreal Center
10:29PM 51.0667 -67.8667 51° Northeast 600 690 41,000  Level Montreal Center
10:30PM 51.1667 -67.6333 56° Northeast 590 679 41,000  Level Montreal Center
10:31PM 51.2500 -67.4500 54° Northeast 580 667 41,000  Level Montreal Center
10:32PM 51.3667 -67.2500 47° Northeast 580 667 41,000  Level Montreal Center
10:33PM 51.4667 -67.0333 53° Northeast 580 667 41,000  Level Montreal Center
10:34PM 51.5667 -66.8167 53° Northeast 580 667 41,000  Level Montreal Center
10:35PM 51.6667 -66.6167 51° Northeast 580 667 41,000  Level Montreal Center
10:36PM 51.7667 -66.4000 53° Northeast 590 679 41,000  Level Montreal Center
10:37PM 51.8667 -66.1833 53° Northeast 590 679 41,000  Level Montreal Center
10:38PM 51.9667 -66.0000 48° Northeast 590 679 41,000  Level Montreal Center
10:39PM 52.0500 -65.7833 58° Northeast 590 679 41,000  Level Montreal Center
10:40PM 52.1500 -65.6500 39° Northeast 590 679 41,000  Level Gander Center
10:41PM 52.2333 -65.4333 58° Northeast 590 679 41,000  Level Gander Center
10:42PM 52.3500 -65.2167 49° Northeast 600 690 41,000  Level Gander Center
10:43PM 52.4333 -65.0167 56° Northeast 590 679 41,000  Level Gander Center
10:44PM 52.5333 -64.8000 53° Northeast 590 679 41,000  Level Gander Center
10:45PM 52.6333 -64.5667 55° Northeast 590 679 41,000  Level Gander Center
10:46PM 52.7167 -64.3500 58° Northeast 590 679 41,000  Level Gander Center
10:47PM 52.8167 -64.1333 53° Northeast 580 667 41,000  Level Gander Center
10:48PM 52.9000 -63.9167 57° Northeast 570 656 41,000  Level Gander Center
10:49PM 53.0000 -63.7000 52° Northeast 580 667 41,000  Level Gander Center
10:50PM 53.1000 -63.4833 52° Northeast 580 667 41,000  Level Gander Center
10:51PM 53.1833 -63.2667 57° Northeast 580 667 41,000  Level Gander Center
10:52PM 53.2833 -63.0500 52° Northeast 580 667 41,000  Level Gander Center
10:53PM 53.3667 -62.8167 59° Northeast 570 656 41,000  Level Gander Center
10:54PM 53.4500 -62.6000 57° Northeast 580 667 41,000  Level Gander Center
10:55PM 53.5333 -62.3833 57° Northeast 580 667 41,000  Level Gander Center
10:56PM 53.6500 -62.1500 50° Northeast 580 667 41,000  Level Gander Center
10:57PM 53.7333 -61.9333 57° Northeast 580 667 41,000  Level Gander Center
10:58PM 53.8167 -61.7000 59° Northeast 580 667 41,000  Level Gander Center
10:59PM 53.9167 -61.4500 56° Northeast 580 667 41,000  Level Gander Center
11:00PM 54.0000 -61.2500 55° Northeast 580 667 41,000  Level Gander Center
11:01PM 54.1000 -61.0000 56° Northeast 580 667 41,000  Level Gander Center
11:02PM 54.1833 -60.7667 59° Northeast 580 667 41,000  Level Gander Center
11:03PM 54.2667 -60.5667 54° Northeast 570 656 41,000  Level Gander Center
11:04PM 54.3500 -60.3333 58° Northeast 570 656 41,000  Level Gander Center
11:05PM 54.4333 -60.1000 58° Northeast 570 656 41,000  Level Gander Center
11:06PM 54.5167 -59.8667 58° Northeast 570 656 41,000  Level Gander Center
11:07PM 54.6000 -59.6333 58° Northeast 570 656 41,000  Level Gander Center
11:08PM 54.6833 -59.4000 58° Northeast 570 656 41,000  Level Gander Center
11:09PM 54.7667 -59.1667 58° Northeast 570 656 41,000  Level Gander Center
11:10PM 54.8500 -58.9333 58° Northeast 570 656 41,000  Level Gander Center
11:11PM 54.9333 -58.7000 58° Northeast 570 656 41,000  Level Gander Center
11:12PM 55.0167 -58.4500 60° Northeast 560 644 41,000  Level Gander Center
11:13PM 55.1000 -58.2167 58° Northeast 570 656 41,000  Level Gander Center
11:14PM 55.1667 -58.0000 62° Northeast 570 656 41,000  Level Gander Center
11:15PM 55.5167 -57.0167 66° East 577 664 41,000  Level ETMS Enhanced Traffic Management System
11:15PM 55.2500 -57.7667 58° Northeast 570 656 41,000  Level Gander Center
11:16PM 55.3500 -57.5167 66° East 570 656 41,000  Level Gander Center
11:17PM 55.4167 -57.2833 63° Northeast 570 656 41,000  Level Gander Center
11:18PM 55.5167 -57.0167 66° East 577 664 41,000  Level ETMS Enhanced Traffic Management System
11:18PM 55.5000 -57.0333 59° Northeast 570 656 41,000  Level Gander Center
11:19PM 55.5667 -56.7833 66° East 570 656 41,000  Level Gander Center
11:20PM 55.6333 -56.5167 66° East 580 667 41,000  Level Gander Center
11:21PM 55.6833 -56.2667 70° East 570 656 41,000  Level Gander Center
11:22PM 55.7333 -56.0000 71° East 570 656 41,000  Level Gander Center
11:23PM 55.8167 -55.7500 59° Northeast 570 656 41,000  Level Gander Center
11:24PM 55.8667 -55.5000 70° East 570 656 41,000  Level Gander Center
11:25PM 55.9667 -55.2500 54° Northeast 560 644 41,000  Level Gander Center
11:26PM 56.0000 -54.9833 77° East 560 644 41,000  Level Gander Center
11:27PM 56.0500 -54.7000 72° East 560 644 41,000  Level Gander Center
11:28PM 56.0833 -54.4500 76° East 570 656 41,000  Level Gander Center
11:29PM 56.1500 -54.2000 64° Northeast 570 656 41,000  Level Gander Center
11:30PM 56.2167 -53.9500 64° Northeast 550 633 41,000  Level Gander Center
11:31PM 56.2667 -53.7000 70° East 570 656 41,000  Level Gander Center
11:32PM 56.3333 -53.4500 64° Northeast 560 644 41,000  Level Gander Center
11:33PM 56.3833 -53.1667 72° East 570 656 41,000  Level Gander Center
11:34PM 56.4333 -52.9000 71° East 570 656 41,000  Level Gander Center
11:35PM 56.4833 -52.6167 72° East 560 644 41,000  Level Gander Center
11:36PM 56.5500 -52.3667 64° Northeast 560 644 41,000  Level Gander Center
11:37PM 56.5833 -52.0833 78° East 560 644 41,000  Level Gander Center
11:38PM 56.6333 -51.8167 71° East 560 644 41,000  Level Gander Center
11:40PM 56.7069 -51.4653 69° East  Level FlightAware Approximate
11:47PM 57.0110 -49.5990 87° East  Level FlightAware Approximate
11:48PM 57.0179 -49.3182 87° East  Level FlightAware Approximate
11:49PM 57.0242 -49.0373 88° East  Level FlightAware Approximate
11:50PM 57.0299 -48.7563 88° East  Level FlightAware Approximate
11:51PM 57.0359 -48.4752 87° East  Level FlightAware Approximate
11:52PM 57.0434 -48.1943 87° East  Level FlightAware Approximate
11:53PM 57.0504 -47.9132 87° East  Level FlightAware Approximate
11:54PM 57.0566 -47.6320 88° East  Level FlightAware Approximate
11:55PM 57.0623 -47.3507 88° East  Level FlightAware Approximate
11:56PM 57.0673 -47.0694 88° East  Level FlightAware Approximate
11:57PM 57.0716 -46.7880 88° East  Level FlightAware Approximate
11:58PM 57.0754 -46.5065 88° East  Level FlightAware Approximate
11:59PM 57.0785 -46.2249 89° East  Level FlightAware Approximate
12:00AM 57.0810 -45.9434 89° East  Level FlightAware Approximate
12:01AM 57.0828 -45.6618 89° East  Level FlightAware Approximate
12:02AM 57.0840 -45.3801 89° East  Level FlightAware Approximate
12:03AM 57.0846 -45.0985 90° East  Level FlightAware Approximate
12:04AM 57.0846 -44.8168 90° East  Level FlightAware Approximate
12:05AM 57.0839 -44.5352 90° East  Level FlightAware Approximate
12:06AM 57.0826 -44.2535 90° East  Level FlightAware Approximate
12:07AM 57.0807 -43.9719 91° East  Level FlightAware Approximate
12:08AM 57.0781 -43.6903 91° East  Level FlightAware Approximate
12:09AM 57.0749 -43.4088 91° East  Level FlightAware Approximate
12:10AM 57.0711 -43.1273 91° East  Level FlightAware Approximate
12:11AM 57.0666 -42.8459 91° East  Level FlightAware Approximate
12:12AM 57.0629 -42.5645 91° East  Level FlightAware Approximate
12:13AM 57.0586 -42.2831 92° East  Level FlightAware Approximate
12:14AM 57.0536 -42.0019 92° East  Level FlightAware Approximate
12:15AM 57.0480 -41.7206 92° East  Level FlightAware Approximate
12:16AM 57.0418 -41.4395 92° East  Level FlightAware Approximate
12:17AM 57.0349 -41.1585 92° East  Level FlightAware Approximate
12:18AM 57.0275 -40.8776 93° East  Level FlightAware Approximate
12:19AM 57.0193 -40.5968 93° East  Level FlightAware Approximate
12:20AM 57.0106 -40.3161 93° East  Level FlightAware Approximate
12:21AM 57.0012 -40.0356 93° East  Level FlightAware Approximate
12:22AM 57.0095 -39.7552 86° East  Level FlightAware Approximate
12:23AM 57.0199 -39.4748 86° East  Level FlightAware Approximate
12:24AM 57.0296 -39.1941 86° East  Level FlightAware Approximate
12:25AM 57.0387 -38.9134 86° East  Level FlightAware Approximate
12:26AM 57.0471 -38.6325 87° East  Level FlightAware Approximate
12:27AM 57.0550 -38.3514 87° East  Level FlightAware Approximate
12:28AM 57.0622 -38.0703 87° East  Level FlightAware Approximate
12:29AM 57.0687 -37.7890 87° East  Level FlightAware Approximate
12:30AM 57.0747 -37.5077 88° East  Level FlightAware Approximate
12:31AM 57.0800 -37.2263 88° East  Level FlightAware Approximate
12:32AM 57.0847 -36.9448 88° East  Level FlightAware Approximate
12:33AM 57.0887 -36.6632 88° East  Level FlightAware Approximate
12:34AM 57.0921 -36.3816 89° East  Level FlightAware Approximate
12:35AM 57.0949 -36.0999 89° East  Level FlightAware Approximate
12:36AM 57.0970 -35.8182 89° East  Level FlightAware Approximate
12:37AM 57.0986 -35.5364 89° East  Level FlightAware Approximate
12:38AM 57.0994 -35.2547 90° East  Level FlightAware Approximate
12:39AM 57.0997 -34.9729 90° East  Level FlightAware Approximate
12:40AM 57.0993 -34.6912 90° East  Level FlightAware Approximate
12:41AM 57.0983 -34.4094 90° East  Level FlightAware Approximate
12:42AM 57.0967 -34.1277 90° East  Level FlightAware Approximate
12:43AM 57.0944 -33.8460 91° East  Level FlightAware Approximate
12:44AM 57.0915 -33.5643 91° East  Level FlightAware Approximate
12:45AM 57.0880 -33.2827 91° East  Level FlightAware Approximate
12:46AM 57.0838 -33.0011 91° East  Level FlightAware Approximate
12:47AM 57.0790 -32.7196 92° East  Level FlightAware Approximate
12:48AM 57.0736 -32.4382 92° East  Level FlightAware Approximate
12:49AM 57.0675 -32.1569 92° East  Level FlightAware Approximate
12:50AM 57.0608 -31.8756 92° East  Level FlightAware Approximate
12:51AM 57.0535 -31.5945 93° East  Level FlightAware Approximate
12:52AM 57.0455 -31.3135 93° East  Level FlightAware Approximate
12:53AM 57.0370 -31.0326 93° East  Level FlightAware Approximate
12:54AM 57.0278 -30.7519 93° East  Level FlightAware Approximate
12:55AM 57.0179 -30.4713 94° East  Level FlightAware Approximate
12:56AM 57.0075 -30.1908 94° East  Level FlightAware Approximate
12:57AM 56.9948 -29.9108 96° East  Level FlightAware Approximate
12:58AM 56.9781 -29.6316 96° East  Level FlightAware Approximate
12:58AM 57.0000 -30.0000 96° East 560 644 41,000  Level ETMS Enhanced Traffic Management System
12:59AM 56.9608 -29.3526 96° East  Level FlightAware Approximate
01:00AM 56.9428 -29.0739 97° East  Level FlightAware Approximate
01:01AM 56.9243 -28.7955 97° East  Level FlightAware Approximate
01:02AM 56.9051 -28.5173 97° East  Level FlightAware Approximate
01:03AM 56.8853 -28.2394 97° East  Level FlightAware Approximate
01:04AM 56.8033 -27.1721 98° East 560 644 41,000  Level FlightAware Transoceanic
01:05AM 56.7802 -26.8910 99° East 560 644 41,000  Level FlightAware Transoceanic
01:06AM 56.7564 -26.6103 99° East 560 644 41,000  Level FlightAware Transoceanic
01:07AM 56.7320 -26.3299 99° East 560 644 41,000  Level FlightAware Transoceanic
01:08AM 56.7069 -26.0500 99° East 560 644 41,000  Level FlightAware Transoceanic
01:09AM 56.6812 -25.7704 100° East 560 644 41,000  Level FlightAware Transoceanic
01:10AM 56.6549 -25.4911 100° East 560 644 41,000  Level FlightAware Transoceanic
01:11AM 56.6280 -25.2123 100° East 560 644 41,000  Level FlightAware Transoceanic
01:12AM 56.6004 -24.9339 100° East 560 644 41,000  Level FlightAware Transoceanic
01:13AM 56.5723 -24.6559 101° East 560 644 41,000  Level FlightAware Transoceanic
01:14AM 56.5435 -24.3783 101° East 560 644 41,000  Level FlightAware Transoceanic
01:15AM 56.5141 -24.1012 101° East 560 644 41,000  Level FlightAware Transoceanic
01:16AM 56.4841 -23.8244 101° East 560 644 41,000  Level FlightAware Transoceanic
01:17AM 56.4534 -23.5481 101° East 560 644 41,000  Level FlightAware Transoceanic
01:18AM 56.4222 -23.2723 102° East 560 644 41,000  Level FlightAware Transoceanic
01:19AM 56.3903 -22.9969 102° East 560 644 41,000  Level FlightAware Transoceanic
01:20AM 56.3578 -22.7220 102° East 560 644 41,000  Level FlightAware Transoceanic
01:21AM 56.3247 -22.4476 102° East 560 644 41,000  Level FlightAware Transoceanic
01:22AM 56.2911 -22.1736 103° East 560 644 41,000  Level FlightAware Transoceanic
01:23AM 56.2568 -21.9001 103° East 560 644 41,000  Level FlightAware Transoceanic
01:24AM 56.2219 -21.6271 103° East 560 644 41,000  Level FlightAware Transoceanic
01:25AM 56.1864 -21.3547 103° East 560 644 41,000  Level FlightAware Transoceanic
01:26AM 56.1503 -21.0827 104° East 560 644 41,000  Level FlightAware Transoceanic
01:27AM 56.1136 -20.8112 104° East 560 644 41,000  Level FlightAware Transoceanic
01:28AM 56.0763 -20.5403 104° East 560 644 41,000  Level FlightAware Transoceanic
01:29AM 56.0385 -20.2699 104° East 560 644 41,000 -120 Level FlightAware Transoceanic
01:30AM 56.0006 -20.0045 104° East  Level FlightAware Approximate
01:31AM 55.9623 -19.7397 104° East  Level FlightAware Approximate
01:32AM 55.9560 -19.7478 107° East  Level FlightAware Approximate
01:33AM 55.9099 -19.4872 107° East  Level FlightAware Approximate
01:34AM 55.8633 -19.2273 108° East  Level FlightAware Approximate
01:35AM 55.8161 -18.9680 108° East  Level FlightAware Approximate
01:36AM 55.7684 -18.7093 108° East  Level FlightAware Approximate
01:37AM 55.7201 -18.4513 108° East  Level FlightAware Approximate
01:38AM 55.6713 -18.1939 108° East  Level FlightAware Approximate
01:39AM 55.6220 -17.9372 109° East  Level FlightAware Approximate
01:40AM 55.5721 -17.6811 109° East  Level FlightAware Approximate
01:41AM 55.5217 -17.4256 109° East  Level FlightAware Approximate
01:42AM 55.4710 -17.1707 109° East  Level FlightAware Approximate
01:43AM 55.4199 -16.9164 109° East  Level FlightAware Approximate
01:44AM 55.3683 -16.6627 110° East  Level FlightAware Approximate
01:45AM 55.3161 -16.4096 110° East  Level FlightAware Approximate
01:46AM 55.2634 -16.1573 110° East  Level FlightAware Approximate
01:47AM 55.2103 -15.9056 110° East  Level FlightAware Approximate
01:48AM 55.1566 -15.6546 110° East  Level FlightAware Approximate
01:49AM 55.1023 -15.4042 111° Southeast  Level FlightAware Approximate
01:50AM 55.0476 -15.1546 111° Southeast  Level FlightAware Approximate
01:51AM 54.9924 -14.9056 111° Southeast  Level FlightAware Approximate
01:52AM 54.9363 -14.6575 112° Southeast  Level FlightAware Approximate
01:53AM 54.8788 -14.4108 112° Southeast  Level FlightAware Approximate
01:54AM 54.8208 -14.1648 112° Southeast  Level FlightAware Approximate
01:55AM 54.7623 -13.9195 112° Southeast  Level FlightAware Approximate
01:56AM 54.7033 -13.6749 113° Southeast  Level FlightAware Approximate
01:57AM 54.6438 -13.4310 113° Southeast  Level FlightAware Approximate
01:58AM 54.5839 -13.1879 113° Southeast  Level FlightAware Approximate
01:59AM 54.5234 -12.9454 113° Southeast  Level FlightAware Approximate
02:00AM 54.4625 -12.7037 113° Southeast  Level FlightAware Approximate
02:01AM 54.4011 -12.4627 114° Southeast  Level FlightAware Approximate
02:02AM 54.3391 -12.2224 114° Southeast  Level FlightAware Approximate
02:03AM 54.2760 -11.9835 114° Southeast  Level FlightAware Approximate
02:04AM 54.2122 -11.7454 115° Southeast  Level FlightAware Approximate
02:05AM 54.1500 -11.5064 114° Southeast  Level FlightAware Approximate
02:06AM 54.0879 -11.2678 114° Southeast  Level FlightAware Approximate
02:07AM 54.0252 -11.0299 114° Southeast  Level FlightAware Approximate
02:08AM 53.9621 -10.7927 114° Southeast  Level FlightAware Approximate
02:09AM 53.8985 -10.5562 114° Southeast  Level FlightAware Approximate
02:10AM 53.8253 -10.3286 120° Southeast  Level FlightAware Approximate
02:11AM 53.7487 -10.1043 120° Southeast  Level FlightAware Approximate
02:12AM 53.6717 -9.8808 120° Southeast  Level FlightAware Approximate
02:13AM 53.5943 -9.6581 120° Southeast  Level FlightAware Approximate
02:14AM 53.5165 -9.4363 120° Southeast  Level FlightAware Approximate
02:15AM 53.4382 -9.2153 121° Southeast  Level FlightAware Approximate
02:16AM 53.3596 -8.9951 121° Southeast  Level FlightAware Approximate
02:17AM 53.2805 -8.7757 122° Southeast  Level FlightAware Approximate
02:18AM 53.2001 -8.5580 122° Southeast  Level FlightAware Approximate
02:18AM 53.3358 -8.9840 122° Southeast 476 548 37,500  Level FlightAware UK
02:19AM 53.1194 -8.3412 122° Southeast  Level FlightAware Approximate
02:19AM 53.3161 -8.9209 118° Southeast 476 548 37,500  Level FlightAware UK
02:19AM 53.2896 -8.8368 118° Southeast 480 552 37,500  Level FlightAware UK
02:19AM 53.2698 -8.7737 118° Southeast 480 552 37,500  Level FlightAware UK
02:20AM 53.2500 -8.7106 118° Southeast 478 550 37,500  Level FlightAware UK
02:20AM 53.2300 -8.6477 118° Southeast 476 548 37,500  Level FlightAware UK
02:20AM 53.2099 -8.5850 118° Southeast 476 548 37,500  Level FlightAware UK
02:21AM 53.1900 -8.5224 118° Southeast 478 550 37,500  Level FlightAware UK
02:21AM 53.1699 -8.4599 118° Southeast 478 550 37,500  Level FlightAware UK
02:21AM 53.1428 -8.3762 118° Southeast 478 550 37,500  Level FlightAware UK
02:22AM 53.1227 -8.3138 118° Southeast 476 548 37,500  Level FlightAware UK
02:22AM 53.1028 -8.2514 118° Southeast 476 548 37,500  Level FlightAware UK
02:22AM 53.0827 -8.1890 118° Southeast 478 550 37,500  Level FlightAware UK
02:23AM 53.0625 -8.1268 118° Southeast 478 550 37,500  Level FlightAware UK
02:23AM 53.0422 -8.0647 119° Southeast 478 550 37,500  Level FlightAware UK
02:23AM 53.0150 -7.9817 119° Southeast 478 550 37,500  Level FlightAware UK
02:24AM 52.9742 -7.8573 119° Southeast 478 550 37,500 -360 Level FlightAware UK
02:24AM 52.9539 -7.7953 119° Southeast 474 545 37,200 -1,020 Descending FlightAware UK
02:24AM 52.9338 -7.7337 118° Southeast 464 534 36,900 -1,020 Descending FlightAware UK
02:25AM 52.9076 -7.6553 119° Southeast 460 529 36,500 -1,020 Descending FlightAware UK
02:25AM 52.8882 -7.5968 119° Southeast 456 525 36,200 -1,020 Descending FlightAware UK
02:25AM 52.8687 -7.5381 119° Southeast 456 525 35,900 -1,020 Descending FlightAware UK
02:26AM 52.8492 -7.4796 119° Southeast 458 527 35,600 -1,020 Descending FlightAware UK
02:26AM 52.8096 -7.3610 119° Southeast 464 534 35,000 -1,020 Descending FlightAware UK
02:27AM 52.7829 -7.2814 119° Southeast 462 532 34,600 -1,020 Descending FlightAware UK
02:27AM 52.7630 -7.2218 119° Southeast 464 534 34,300 -1,020 Descending FlightAware UK
02:27AM 52.7426 -7.1617 119° Southeast 462 532 34,000 -1,020 Descending FlightAware UK
02:28AM 52.7226 -7.1026 119° Southeast 462 532 33,700 -1,020 Descending FlightAware UK
02:28AM 52.7024 -7.0433 119° Southeast 462 532 33,400 -1,020 Descending FlightAware UK
02:28AM 52.6822 -6.9838 119° Southeast 464 534 33,100 -1,020 Descending FlightAware UK
02:29AM 52.6617 -6.9238 119° Southeast 468 539 32,800 -1,020 Descending FlightAware UK
02:29AM 52.6204 -6.8026 119° Southeast 466 536 32,200 -1,020 Descending FlightAware UK
02:29AM 52.5997 -6.7420 119° Southeast 468 539 31,900 -1,020 Descending FlightAware UK
02:30AM 52.5720 -6.6616 120° Southeast 470 541 31,500 -900 Descending FlightAware UK
02:30AM 52.5443 -6.5816 120° Southeast 472 543 31,200 -1,020 Descending FlightAware UK
02:31AM 52.5236 -6.5219 120° Southeast 472 543 30,800 -1,020 Descending FlightAware UK
02:31AM 52.4899 -6.4247 120° Southeast 470 541 30,400 -900 Descending FlightAware UK
02:31AM 52.4628 -6.3469 120° Southeast 472 543 30,000 -660 Descending FlightAware UK
02:32AM 52.3951 -6.1536 120° Southeast 468 539 29,500 -420 Descending FlightAware UK
02:33AM 52.3746 -6.0955 120° Southeast 468 539 29,500  Level FlightAware UK
02:33AM 52.3475 -6.0190 120° Southeast 468 539 29,500  Level FlightAware UK
02:33AM 52.3272 -5.9617 120° Southeast 468 539 29,500  Level FlightAware UK
02:34AM 52.3070 -5.9044 120° Southeast 468 539 29,500  Level FlightAware UK
02:34AM 52.2867 -5.8473 120° Southeast 468 539 29,500  Level FlightAware UK
02:35AM 52.2488 -5.7306 118° Southeast 466 536 29,500  Level FlightAware UK
02:35AM 52.2316 -5.6699 115° Southeast 468 539 29,500  Level FlightAware UK
02:35AM 52.2148 -5.6094 114° Southeast 468 539 29,500  Level FlightAware UK
02:36AM 52.1981 -5.5489 114° Southeast 468 539 29,500  Level FlightAware UK
02:36AM 52.1813 -5.4883 114° Southeast 468 539 29,500  Level FlightAware UK
02:36AM 52.1532 -5.3875 114° Southeast 468 539 29,500  Level FlightAware UK
02:37AM 52.1363 -5.3272 115° Southeast 468 539 29,500  Level FlightAware UK
02:37AM 52.1136 -5.2470 115° Southeast 466 536 29,500  Level FlightAware UK
02:37AM 52.0965 -5.1870 115° Southeast 466 536 29,500  Level FlightAware UK
02:38AM 52.0677 -5.0862 115° Southeast 466 536 29,500  Level FlightAware UK
02:38AM 52.0505 -5.0268 115° Southeast 468 539 29,500  Level FlightAware UK
02:38AM 52.0332 -4.9666 115° Southeast 468 539 29,500  Level FlightAware UK
02:39AM 52.0100 -4.8863 115° Southeast 468 539 29,500  Level FlightAware UK
02:39AM 51.9869 -4.8061 115° Southeast 466 536 29,500  Level FlightAware UK
02:40AM 51.9692 -4.7454 115° Southeast 468 539 29,500  Level FlightAware UK
02:40AM 51.9515 -4.6855 116° Southeast 466 536 29,500  Level FlightAware UK
02:40AM 51.9338 -4.6258 116° Southeast 468 539 29,500  Level FlightAware UK
02:40AM 51.9160 -4.5661 116° Southeast 468 539 29,500  Level FlightAware UK
02:41AM 51.8982 -4.5065 116° Southeast 468 539 29,500  Level FlightAware UK
02:41AM 51.8803 -4.4469 116° Southeast 468 539 29,500  Level FlightAware UK
02:41AM 51.8672 -4.3847 109° East 470 541 29,500  Level FlightAware UK
02:42AM 51.8583 -4.3200 102° East 468 539 29,500  Level FlightAware UK
02:42AM 51.8497 -4.2560 102° East 466 536 29,500  Level FlightAware UK
02:42AM 51.8413 -4.1920 102° East 466 536 29,500  Level FlightAware UK
02:43AM 51.8300 -4.1075 102° East 468 539 29,500  Level FlightAware UK
02:43AM 51.8213 -4.0430 102° East 468 539 29,500  Level FlightAware UK
02:43AM 51.8095 -3.9579 103° East 468 539 29,500  Level FlightAware UK
02:44AM 51.8006 -3.8944 103° East 468 539 29,500  Level FlightAware UK
02:44AM 51.7917 -3.8310 103° East 466 536 29,500  Level FlightAware UK
02:44AM 51.7768 -3.7258 103° East 466 536 29,500  Level FlightAware UK
02:45AM 51.7644 -3.6410 103° East 466 536 29,500  Level FlightAware UK
02:45AM 51.7550 -3.5777 103° East 468 539 29,500  Level FlightAware UK
02:45AM 51.7456 -3.5143 103° East 468 539 29,500  Level FlightAware UK
02:46AM 51.7362 -3.4517 104° East 468 539 29,500  Level FlightAware UK
02:46AM 51.7266 -3.3877 104° East 468 539 29,500  Level FlightAware UK
02:46AM 51.7169 -3.3237 104° East 468 539 29,500  Level FlightAware UK
02:47AM 51.7044 -3.2403 104° East 468 539 29,500 -540 Level FlightAware UK
02:47AM 51.6914 -3.1565 104° East 468 539 29,100 -1,320 Descending FlightAware UK
02:47AM 51.6815 -3.0931 104° East 466 536 28,600 -1,860 Descending FlightAware UK
02:48AM 51.6690 -3.0121 104° East 456 525 27,800 -2,040 Descending FlightAware UK
02:48AM 51.6566 -2.9323 104° East 452 520 27,000 -2,160 Descending FlightAware UK
02:49AM 51.6446 -2.8533 104° East 446 513 26,100 -2,400 Descending FlightAware UK
02:49AM 51.6324 -2.7757 104° East 440 506 25,100 -2,460 Descending FlightAware UK
02:49AM 51.6232 -2.7174 104° East 436 502 24,400 -2,520 Descending FlightAware UK
02:50AM 51.6137 -2.6604 105° East 432 497 23,600 -2,520 Descending FlightAware UK
02:50AM 51.6040 -2.6046 106° East 426 490 22,900 -2,460 Descending FlightAware UK
02:50AM 51.5944 -2.5482 105° East 424 488 22,100 -2,460 Descending FlightAware UK
02:51AM 51.5854 -2.4931 105° East 416 479 21,400 -2,460 Descending FlightAware UK
02:51AM 51.5743 -2.4205 104° East 412 474 20,400 -2,580 Descending FlightAware UK
02:51AM 51.5649 -2.3310 100° East 402 463 19,100 -2,520 Descending FlightAware UK
02:52AM 51.5592 -2.2789 100° East 398 458 18,400 -2,520 Descending FlightAware UK
02:52AM 51.5534 -2.2273 100° East 394 453 17,600 -2,520 Descending FlightAware UK
02:52AM 51.5478 -2.1753 100° East 392 451 16,900 -2,460 Descending FlightAware UK
02:53AM 51.5406 -2.1073 100° East 386 444 15,900 -2,340 Descending FlightAware UK
02:53AM 51.5355 -2.0564 99° East 382 440 15,300 -2,220 Descending FlightAware UK
02:53AM 51.5304 -2.0065 99° East 376 433 14,600 -2,340 Descending FlightAware UK
02:54AM 51.5233 -1.9409 100° East 374 430 13,700 -2,160 Descending FlightAware UK
02:54AM 51.5183 -1.8924 99° East 370 426 13,100 -2,040 Descending FlightAware UK
02:54AM 51.5120 -1.8288 99° East 366 421 12,300 -1,740 Descending FlightAware UK
02:55AM 51.5076 -1.7820 98° East 362 417 11,900 -1,200 Descending FlightAware UK
02:55AM 51.5030 -1.7347 99° East 362 417 11,600 -1,200 Descending FlightAware UK
02:55AM 51.4986 -1.6881 99° East 360 414 11,200 -1,380 Descending FlightAware UK
02:56AM 51.4940 -1.6408 99° East 356 410 10,800 -1,500 Descending FlightAware UK
02:56AM 51.4895 -1.5944 99° East 356 410 10,300 -1,620 Descending FlightAware UK
02:56AM 51.4838 -1.5353 99° East 336 387 9,700 -1,620 Descending FlightAware UK
02:57AM 51.4772 -1.4942 105° East 322 371 9,200 -1,500 Descending FlightAware UK
02:57AM 51.4665 -1.4563 114° Southeast 306 352 8,800 -1,500 Descending FlightAware UK
02:58AM 51.4386 -1.3773 120° Southeast 284 327 7,700 -1,500 Descending FlightAware UK
02:58AM 51.4273 -1.3454 120° Southeast 282 325 7,300 -1,500 Descending FlightAware UK
02:58AM 51.4159 -1.3134 120° Southeast 278 320 6,800 -1,680 Descending FlightAware UK
02:59AM 51.3972 -1.2608 120° Southeast 274 315 6,000 -1,500 Descending FlightAware UK
02:59AM 51.3789 -1.2090 120° Southeast 272 313 5,300 -1,380 Descending FlightAware UK
03:00AM 51.3681 -1.1779 119° Southeast 270 311 4,900 -1,500 Descending FlightAware UK
03:00AM 51.3575 -1.1477 119° Southeast 268 308 4,400 -1,500 Descending FlightAware UK
03:00AM 51.3469 -1.1170 119° Southeast 264 304 4,000 -1,500 Descending FlightAware UK
03:00AM 51.3368 -1.0879 119° Southeast 254 292 3,500 -1,500 Descending FlightAware UK
03:01AM 51.3266 -1.0588 119° Southeast 254 292 3,100 -1,500 Descending FlightAware UK
03:01AM 51.3163 -1.0298 120° Southeast 254 292 2,600 -1,500 Descending FlightAware UK
03:02AM 51.2995 -0.9831 120° Southeast 248 285 1,900 -1,380 Descending FlightAware UK
03:02AM 51.2896 -0.9553 120° Southeast 248 285 1,500 -1,200 Descending FlightAware UK
03:02AM 51.2797 -0.9272 119° Southeast 246 283 1,200 -1,020 Descending FlightAware UK
03:03AM 51.2668 -0.8911 120° Southeast 244 281 800 -420 Descending FlightAware UK
03:03AM 51.2563 -0.8527 114° Southeast 244 281 900 120 Climbing FlightAware UK
03:03AM 51.2505 -0.8225 107° East 244 281 900  Level FlightAware UK
03:04AM 51.2451 -0.7925 106° East 244 281 900 -300 Level FlightAware UK
03:04AM 51.2381 -0.7526 106° East 238 274 700 -600 Descending FlightAware UK
03:04AM 51.2332 -0.7248 106° East 222 255 500 -540 Descending FlightAware UK
03:05AM 51.2347 -0.6985 85° East 212 244 400 -240 Descending FlightAware UK
03:05AM 51.2457 -0.6488 71° East 212 244 300 -120 Descending FlightAware UK
03:06AM 51.2533 -0.6155 70° East 212 244 300  Level FlightAware UK
03:06AM 51.2590 -0.5906 70° East 212 244 300  Level FlightAware UK
03:06AM 51.2680 -0.5525 69° East 186 214 300  Level FlightAware UK
03:07AM 51.2942 -0.5571 354° North 182 209 300  Level FlightAware UK
03:07AM 51.3097 -0.5760 323° Northwest 178 205 300 -180 Level FlightAware UK
03:08AM 51.3196 -0.5891 320° Northwest 160 184 200 -240 Descending FlightAware UK
03:08AM 51.3212 -0.6311 273° West 150 173 100 -180 Descending FlightAware UK